Weather History for Arctic Village, AK

Change the Weather History Date:

Tuesday, October 16, 2012

  Actual Average Record
Temperature  
Mean Temperature 21 °F -  
Max Temperature 23 °F 18 °F 35 °F (1962)
Min Temperature 19 °F -2 °F -27 °F (1970)
Degree Days  
Heating Degree Days 44    
Moisture  
Dew Point 19 °F    
Average Humidity 91    
Maximum Humidity 100    
Minimum Humidity 80    
Precipitation  
Precipitation 0.00 in - - ()
Sea Level Pressure  
Sea Level Pressure 29.39 in    
Wind  
Wind Speed 9 mph (ENE)    
Max Wind Speed 14 mph    
Max Gust Speed 20 mph    
Visibility 5 miles    
Events      
Averages and records for this station are not official NWS values.
T = Trace of Precipitation, MM = Missing Value Source: NWS Daily Summary

Daily Weather History Graph

Daily Weather History Graph

Search for Another Location

Airport:

Trip Planner

Search our weather history database for the weather conditions in past years. The results will help you decide how hot, cold, wet, or windy it might be!

Date:

Astronomy

Oct. 16, 2012 Rise Set
Actual Time 8:53 AM AKDT 6:00 PM AKDT
Civil Twilight 7:55 AM AKDT 6:58 PM AKDT
Nautical Twilight 6:50 AM AKDT 8:03 PM AKDT
Astronomical Twilight 5:43 AM AKDT 9:09 PM AKDT
Moon 11:51 AM AKDT (10/16) 5:21 PM AKDT (10/16)
Length of Visible Light 11h 03m
Length of Day
9h 07m
Waxing Crescent, 3% of the Moon is Illuminated
Oct 16
Waxing Crescent
Oct 21
First Quarter
Oct 29
Full
Nov 6
Last Quarter
Nov 13
New

Hourly Weather History & Observations

Time (AKDT) Temp. Windchill Dew Point Humidity Pressure Visibility Wind Dir Wind Speed Gust Speed Precip Events Conditions
12:16 AM 21.2 °F 10.9 °F 19.4 °F 93% 29.24 in 1.5 mi ENE 9.2 mph - N/A   Overcast
12:36 AM 21.2 °F 9.5 °F 19.4 °F 93% 29.25 in 1.8 mi ENE 11.5 mph - N/A   Overcast
12:56 AM 21.2 °F 10.9 °F 19.4 °F 93% 29.25 in 1.2 mi NE 9.2 mph - N/A   Overcast
1:16 AM 21.2 °F 11.7 °F 19.4 °F 93% 29.25 in 1.5 mi NNE 8.1 mph - N/A   Overcast
1:36 AM 21.2 °F 10.1 °F 19.4 °F 93% 29.26 in 1.8 mi NNE 10.4 mph 16.1 mph N/A   Overcast
1:56 AM 21.2 °F 10.1 °F 19.4 °F 93% 29.26 in 2.5 mi NNE 10.4 mph - N/A   Overcast
2:16 AM 21.2 °F 10.9 °F 19.4 °F 93% 29.26 in 1.5 mi North 9.2 mph - N/A   Overcast
2:36 AM 21.2 °F 10.9 °F 19.4 °F 93% 29.26 in 2.0 mi NNE 9.2 mph - N/A   Overcast
2:56 AM 21.2 °F 12.6 °F 19.4 °F 93% 29.26 in 3.0 mi NNE 6.9 mph - N/A   Overcast
3:16 AM 21.2 °F 10.1 °F 19.4 °F 93% 29.27 in 3.0 mi NNE 10.4 mph - N/A   Overcast
3:36 AM 21.2 °F 10.1 °F 19.4 °F 93% 29.27 in 3.0 mi NE 10.4 mph - N/A   Overcast
3:56 AM 21.2 °F 8.9 °F 19.4 °F 93% 29.28 in 3.0 mi NE 12.7 mph - N/A   Overcast
4:16 AM 21.2 °F 8.9 °F 19.4 °F 93% 29.28 in 3.0 mi NNE 12.7 mph 16.1 mph N/A   Overcast
4:36 AM 21.2 °F 8.9 °F 17.6 °F 86% 29.29 in 5.0 mi NNE 12.7 mph 19.6 mph N/A   Overcast
4:56 AM 21.2 °F 8.9 °F 17.6 °F 86% 29.29 in 3.0 mi NNE 12.7 mph 17.3 mph N/A   Overcast
5:16 AM 19.4 °F 6.6 °F 17.6 °F 93% 29.29 in 2.5 mi NNE 12.7 mph 18.4 mph N/A   Overcast
5:36 AM 19.4 °F 7.9 °F 17.6 °F 93% 29.29 in 2.5 mi NE 10.4 mph - N/A   Overcast
5:56 AM 19.4 °F 6.0 °F 17.6 °F 93% 29.29 in 2.5 mi NE 13.8 mph 17.3 mph N/A   Overcast
6:16 AM 19.4 °F 6.0 °F 17.6 °F 93% 29.30 in 3.0 mi NE 13.8 mph 17.3 mph N/A   Overcast
6:36 AM 19.4 °F 7.2 °F 17.6 °F 93% 29.30 in 1.2 mi NE 11.5 mph 19.6 mph N/A   Overcast
6:56 AM 19.4 °F 7.2 °F 17.6 °F 93% 29.31 in 3.0 mi NE 11.5 mph 18.4 mph N/A   Overcast
7:16 AM 19.4 °F 7.2 °F 17.6 °F 93% 29.31 in 1.2 mi NE 11.5 mph - N/A   Overcast
7:36 AM 19.4 °F 7.9 °F 17.6 °F 93% 29.32 in 2.5 mi NE 10.4 mph 16.1 mph N/A   Overcast
7:56 AM 19.4 °F 7.9 °F 17.6 °F 93% 29.32 in 3.0 mi ENE 10.4 mph 16.1 mph N/A   Overcast
8:16 AM 19.4 °F 7.9 °F 17.6 °F 93% 29.33 in 2.5 mi ENE 10.4 mph - N/A   Overcast
8:36 AM 19.4 °F 7.9 °F 17.6 °F 93% 29.33 in 3.0 mi ENE 10.4 mph - N/A   Overcast
8:56 AM 19.4 °F 7.9 °F 17.6 °F 93% 29.34 in 5.0 mi ENE 10.4 mph - N/A   Overcast
9:16 AM 19.4 °F 8.6 °F 17.6 °F 93% 29.35 in 8.0 mi ENE 9.2 mph - N/A   Overcast
9:36 AM 19.4 °F 8.6 °F 17.6 °F 93% 29.35 in 5.0 mi ENE 9.2 mph - N/A   Overcast
9:56 AM 19.4 °F 7.9 °F 17.6 °F 93% 29.36 in 3.0 mi ENE 10.4 mph - N/A   Overcast
10:16 AM 19.4 °F 7.9 °F 17.6 °F 93% 29.36 in 2.0 mi East 10.4 mph - N/A   Overcast
10:36 AM 21.2 °F 11.7 °F 17.6 °F 86% 29.37 in 1.5 mi ENE 8.1 mph - N/A   Overcast
10:56 AM 21.2 °F 10.9 °F 17.6 °F 86% 29.38 in 2.0 mi East 9.2 mph - N/A   Overcast
11:16 AM 21.2 °F 11.7 °F 19.4 °F 93% 29.38 in 5.0 mi East 8.1 mph - N/A   Overcast
11:36 AM 21.2 °F 11.7 °F 19.4 °F 93% 29.39 in 10.0 mi East 8.1 mph - N/A   Overcast
11:56 AM 21.2 °F 11.7 °F 19.4 °F 93% 29.40 in 10.0 mi East 8.1 mph - N/A   Overcast
12:16 PM 21.2 °F 11.7 °F 17.6 °F 86% 29.40 in 10.0 mi East 8.1 mph - N/A   Overcast
12:36 PM 21.2 °F 10.1 °F 17.6 °F 86% 29.40 in 10.0 mi East 10.4 mph - N/A   Overcast
12:56 PM 21.2 °F 10.9 °F 17.6 °F 86% 29.41 in 10.0 mi East 9.2 mph - N/A   Overcast
1:16 PM 21.2 °F 8.9 °F 17.6 °F 86% 29.41 in 10.0 mi East 12.7 mph - N/A   Overcast
1:56 PM 21.2 °F 10.9 °F 17.6 °F 86% 29.42 in 10.0 mi East 9.2 mph - N/A   Overcast
2:16 PM 21.2 °F 10.1 °F 17.6 °F 86% 29.42 in 10.0 mi East 10.4 mph - N/A   Overcast
2:36 PM 21.2 °F 12.6 °F 17.6 °F 86% 29.43 in 10.0 mi East 6.9 mph - N/A   Overcast
2:56 PM 21.2 °F 11.7 °F 17.6 °F 86% 29.43 in 10.0 mi East 8.1 mph - N/A   Overcast
3:16 PM 21.2 °F 12.6 °F 17.6 °F 86% 29.43 in 10.0 mi East 6.9 mph - N/A   Overcast
3:36 PM 23.0 °F 13.9 °F 17.6 °F 80% 29.44 in 10.0 mi East 8.1 mph - N/A   Overcast
3:56 PM 23.0 °F 14.7 °F 19.4 °F 86% 29.44 in 10.0 mi East 6.9 mph - N/A   Overcast
4:16 PM 23.0 °F 14.7 °F 19.4 °F 86% 29.44 in 10.0 mi East 6.9 mph - N/A   Overcast
4:36 PM 23.0 °F 15.8 °F 17.6 °F 80% 29.44 in 5.0 mi East 5.8 mph - N/A   Overcast
4:56 PM 21.2 °F 13.6 °F 19.4 °F 93% 29.44 in 10.0 mi East 5.8 mph - N/A   Overcast
5:16 PM 21.2 °F 16.4 °F 19.4 °F 93% 29.45 in 10.0 mi East 3.5 mph - N/A   Overcast
5:36 PM 21.2 °F 14.9 °F 19.4 °F 93% 29.46 in 2.0 mi East 4.6 mph - N/A   Overcast
5:56 PM 21.2 °F 16.4 °F 19.4 °F 93% 29.46 in 0.8 mi ENE 3.5 mph - N/A   Overcast
6:16 PM 21.2 °F 16.4 °F 19.4 °F 93% 29.47 in 1.5 mi NE 3.5 mph - N/A   Overcast
6:36 PM 21.2 °F - 19.4 °F 93% 29.47 in 1.0 mi Calm Calm - N/A   Overcast
6:56 PM 21.2 °F - 19.4 °F 93% 29.47 in 2.5 mi Calm Calm - N/A   Overcast
7:16 PM 21.2 °F - 19.4 °F 93% 29.48 in 10.0 mi Calm Calm - N/A   Overcast
7:36 PM 21.2 °F 16.4 °F 19.4 °F 93% 29.48 in 10.0 mi ENE 3.5 mph - N/A   Overcast
7:56 PM 21.2 °F 16.4 °F 19.4 °F 93% 29.48 in 9.0 mi East 3.5 mph - N/A   Overcast
8:16 PM 21.2 °F 14.9 °F 19.4 °F 93% 29.48 in 4.0 mi ENE 4.6 mph - N/A   Overcast
8:36 PM 21.2 °F 14.9 °F 19.4 °F 93% 29.49 in 4.0 mi East 4.6 mph - N/A   Overcast
8:56 PM 21.2 °F 14.9 °F 21.2 °F 100% 29.49 in 1.8 mi ENE 4.6 mph - N/A   Overcast
9:16 PM 23.0 °F 17.0 °F 21.2 °F 93% 29.50 in 1.8 mi NE 4.6 mph - N/A   Overcast
9:36 PM 23.0 °F 18.4 °F 21.2 °F 93% 29.50 in 1.8 mi ENE 3.5 mph - N/A   Overcast
9:56 PM 23.0 °F 18.4 °F 21.2 °F 93% 29.51 in 3.0 mi NE 3.5 mph - N/A   Overcast
10:16 PM 23.0 °F 17.0 °F 21.2 °F 93% 29.52 in 1.5 mi ENE 4.6 mph - N/A   Overcast
10:36 PM 23.0 °F 17.0 °F 21.2 °F 93% 29.52 in 1.5 mi ENE 4.6 mph - N/A   Overcast
10:56 PM 23.0 °F 17.0 °F 21.2 °F 93% 29.52 in 1.8 mi NE 4.6 mph - N/A   Overcast
11:16 PM 23.0 °F 17.0 °F 21.2 °F 93% 29.53 in 1.5 mi ENE 4.6 mph - N/A   Overcast
11:36 PM 23.0 °F 15.8 °F 21.2 °F 93% 29.53 in 2.5 mi ENE 5.8 mph - N/A   Overcast
11:56 PM 23.0 °F 14.7 °F 21.2 °F 93% 29.54 in 3.0 mi East 6.9 mph - N/A   Overcast